Regional Weather Roundup
Issued by NWS

Home | Current Version | Previous Version | Text Only | Print | Product List | Glossary Off
Versions: 1 2 3 4 5 6 7 8 9 10 11 12 13 14 15 16 17 18 19 20 21 22 23 24 25 26 27 28 29 30 31 32 33 34 35 36 37 38 39 40 41 42 43 44 45 46 47 48 49 50

355
ASUS44 KMEG 021900
RWRTN
TENNESSEE HOURLY STATE WEATHER ROUNDUP
NATIONAL WEATHER SERVICE MEMPHIS TN
200 PM CDT MON MAY 02 2016

TNZ002-004-019-021-049-052-054-088>092-022000-
WEST TENNESSEE

CITY           SKY/WX    TMP DP  RH WIND       PRES   REMARKS
MEMPHIS INTL   CLOUDY    65  58  78 N6        30.00F
NWS MEMPHIS      N/A     62 N/A N/A MISG        N/A
JACKSON        CLOUDY    58  56  93 NW6       30.00S
DYERSBURG      PTSUNNY   64  54  68 CALM        N/A
UNION CITY     MOSUNNY   66  54  63 NW5       29.97F
LEXINGTON      MOSUNNY   61  57  88 VRB3      29.97R
$$

TNZ008-025-027-028-033-062-065-066-022000-
NORTH MIDDLE TENNESSEE

CITY           SKY/WX    TMP DP  RH WIND       PRES   REMARKS
NASHVILLE      RAIN      59  56  89 S5        29.99F FOG
CLARKSVILLE    CLOUDY    58  53  84 E3        29.99R
COOKEVILLE     CLOUDY    63  61  94 N9        29.98R
CROSSVILLE     LGT RAIN  68  64  87 CALM      29.97F FOG
$$

TNZ061-075-076-078-094-096-097-022000-
SOUTH MIDDLE TENNESSEE

CITY           SKY/WX    TMP DP  RH WIND       PRES   REMARKS
TULLAHOMA      CLOUDY    61  61 100 NW15      30.01R
WINCHESTER     CLOUDY    70  66  88 W5        29.97F
MCMINNVILLE    CLOUDY    63  63 100 NW12      30.00R
COLUMBIA       CLOUDY   N/A N/A N/A SE3       29.98F
SHELBYVILLE    CLOUDY    61  61 100 NE5       30.01F
$$

TNZ017-018-042-046-047-022000-
NORTHEAST TENNESSEE

CITY           SKY/WX    TMP DP  RH WIND       PRES   REMARKS
TRI CITIES     MOSUNNY   78  60  53 SW12      29.95F
$$

TNZ012-013-036-069-073-074-022000-
CENTRAL EAST TENNESSEE

CITY           SKY/WX    TMP DP  RH WIND       PRES   REMARKS
KNOXVILLE      CLOUDY    78  65  63 W12       29.95F
OAK RIDGE      PTSUNNY   76  63  64 VRB5      29.97F
GATLINBURG     PTCLDY    75  64  69 W9        29.94F
$$

TNZ083-085-099-022000-
SOUTHEAST TENNESSEE

CITY           SKY/WX    TMP DP  RH WIND       PRES   REMARKS
CHATTANOOGA    CLOUDY    78  62  57 S13G24    29.95F
$$

SKY/WX REPORTED AS FAIR MEANS FEW OR NO CLOUDS BELOW
12 THOUSAND FEET.





USA.gov is the U.S. government's official web portal to all federal, state and local government web resources and services.